This is the latest recevied weather packets stored in our database for station/object N9BID. If no packets are shown the sender has not sent any weather packets the latest 10 day(s).
| Time | Temp. | Humidity | Pressure | Rain* | Wind** | Luminosity | Snow |
|---|---|---|---|---|---|---|---|
| 1777846753 | 20.56° C | 42% | 995.4 hPa | 0 mm | - | 291 W/m² | - |
| 1777846451 | 20.56° C | 43% | 995.3 hPa | 0 mm | - | 314 W/m² | - |
| 1777846147 | 20° C | 45% | 995.1 hPa | 0 mm | - | 260 W/m² | - |
| 1777845844 | 20.56° C | 41% | 995.1 hPa | 0 mm | - | 381 W/m² | - |
| 1777845541 | 20.56° C | 43% | 995.3 hPa | 0 mm | - | 391 W/m² | - |
| 1777845238 | 20.56° C | 40% | 995.1 hPa | 0 mm | - | 395 W/m² | - |
| 1777844935 | 20.56° C | 41% | 995.3 hPa | 0 mm | - | 446 W/m² | - |
| 1777844633 | 20.56° C | 41% | 995.5 hPa | 0 mm | - | 418 W/m² | - |
| 1777844330 | 20.56° C | 41% | 995.1 hPa | 0 mm | - | 465 W/m² | - |
| 1777844028 | 20° C | 41% | 995.3 hPa | 0 mm | - | 134 W/m² | - |
| 1777843724 | 20° C | 45% | 995.2 hPa | 0 mm | - | 488 W/m² | - |
| 1777843423 | 20° C | 45% | 995.1 hPa | 0 mm | - | 103 W/m² | - |
| 1777843119 | 18.89° C | 45% | 995.2 hPa | 0 mm | - | 517 W/m² | - |
| 1777842816 | 20.56° C | 44% | 995.5 hPa | 0 mm | - | 146 W/m² | - |
| 1777842511 | 20.56° C | 46% | 995.5 hPa | 0 mm | - | 583 W/m² | - |
| 1777842209 | 20.56° C | 44% | 995.6 hPa | 0 mm | - | 191 W/m² | - |
| 1777841904 | 20° C | 46% | 995.5 hPa | 0 mm | - | 147 W/m² | - |
| 1777841600 | 20.56° C | 47% | 995.5 hPa | 0 mm | - | 534 W/m² | - |
| 1777841297 | 20° C | 49% | 995.6 hPa | 0 mm | - | 562 W/m² | - |
| 1777840995 | 20° C | 46% | 995.5 hPa | 0 mm | - | 592 W/m² | - |
| 1777840692 | 20° C | 46% | 995.4 hPa | 0 mm | - | 607 W/m² | - |
| 1777840389 | 20° C | 47% | 995.7 hPa | 0 mm | - | 612 W/m² | - |
| 1777840086 | 20° C | 48% | 995.7 hPa | 0 mm | - | 592 W/m² | - |
| 1777839784 | 19.44° C | 47% | 995.9 hPa | 0 mm | - | 284 W/m² | - |
| 1777839481 | 20° C | 48% | 996 hPa | 0 mm | - | 335 W/m² | - |
* Rain latest hour (hover to see other rain measurements)
** Current wind speed in m/s (hover to see current wind gust speed)